SCP
0 0 0 0 0 0 0 0 0 0 0 0 0 0 0 0 -0 0 0 -0 0 0 0 0 1 1 0 0 1 1 1 1 0 1 1 1 0 0 0 0 0 0 0
0 0 0 0 0 0 0 0 0 0 0 0 0 0 0 0 0 0 0 0 -0 0 0 0 0 1 1 1 1 1 1 1 1 1 0 1 0 0 0 0 0 0 0
1 0 0 0 0 0 0 0 0 0 0 0 0 0 0 0 0 0 0 0 0 0 0 1 1 1 1 1 0 1 1 1 1 1 0 0 1 0 0 0 0 0 0
1 1 1 0 0 0 0 0 0 0 0 0 0 0 0 0 0 0 0 0 1 1 1 1 1 1 1 1 1 1 1 1 1 1 1 1 1 0 0 0 0 0 0
1 1 1 1 0 0 0 0 0 0 0 0 0 0 0 0 0 0 0 0 1 1 1 0 0 1 1 1 1 1 1 1 1 1 1 0 1 0 0 0 0 0 0
1 1 1 1 0 0 0 0 0 0 0 0 0 0 0 0 0 0 0 0 0 1 1 1 1 1 1 1 1 1 1 1 1 1 1 1 1 0 0 0 0 0 0
0 1 1 1 1 0 1 1 1 1 1 0 0 0 0 0 0 0 0 0 0 0 0 0 0 1 1 0 0 1 1 1 1 1 1 1 0 0 0 0 1 1 0
1 1 1 1 1 1 1 1 1 1 1 0 0 -0 0 0 0 0 0 1 0 0 0 0 -0 0 1 1 0 1 1 1 1 1 1 0 0 0 1 0 1 0 0
1 1 1 1 1 1 1 1 1 1 1 1 0 1 1 1 -0 -0 0 0 0 0 0 0 0 0 0 1 1 1 1 1 1 1 1 1 1 0 0 0 1 1 1
0 0 0 1 1 1 1 1 1 1 0 0 0 1 1 1 0 0 0 0 0 0 0 0 0 0 0 0 1 1 1 1 1 1 1 1 1 0 0 0 0 0 0
0 0 0 0 0 0 0 0 1 1 0 0 0 0 1 1 0 1 0 0 0 0 0 0 0 0 -0 0 0 1 1 0 1 1 0 0 0 0 0 0 0 0 0
0 0 0 0 0 0 0 0 0 0 0 1 1 1 1 1 1 0 0 0 0 0 0 0 -0 -0 -0 0 0 0 0 0 0 0 0 0 0 0 0 0 0 0 0
0 0 0 0 0 0 0 0 0 0 0 0 0 0 0 0 1 0 0 0 0 0 0 0 -0 0 0 0 0 0 0 0 0 0 0 0 0 0 0 0 0 0 0
0 0 0 0 0 0 0 0 0 0 0 0 0 0 0 0 0 0 0 0 0 0 0 0 0 0 0 0 0 0 0 0 0 0 0 0 0 0 0 0 0 0 0
0 0 0 0 0 0 0 0 0 0 0 0 0 0 0 0 0 0 0 0 0 0 0 0 0 0 0 0 0 0 0 0 0 0 0 0 0 0 0 0 0 0 0
0 0 0 0 0 0 0 0 0 0 0 0 0 0 0 0 0 0 0 0 0 0 0 0 0 0 0 0 0 0 0 0 0 0 0 0 0 0 0 0 0 0 0
0 0 0 0 0 0 0 0 0 0 0 0 0 0 0 0 0 0 0 0 0 0 0 0 0 0 0 0 0 -0 -0 0 0 0 0 0 0 0 -0 0 0 0 0
0 0 0 0 0 0 0 0 0 0 0 0 0 0 0 0 0 0 0 0 0 0 0 0 0 0 0 0 0 0 -0 0 0 0 0 0 0 0 0 0 0 0 0
0 0 0 0 0 0 0 0 0 0 0 0 0 0 0 0 0 0 0 0 0 0 0 0 0 0 0 0 0 0 0 0 0 0 0 0 0 0 0 0 0 0 0
0 0 0 0 0 0 0 0 0 0 0 0 0 0 0 0 0 0 0 0 0 0 0 0 0 0 0 0 0 0 0 0 0 0 0 0 0 0 0 0 0 0 0
0 0 0 0 0 0 0 0 0 0 0 0 0 0 0 0 0 0 0 0 0 0 0 0 0 0 0 0 0 0 0 0 0 0 0 0 0 0 0 0 0 0 0
0 0 0 0 0 0 0 0 0 0 0 0 0 0 0 0 0 0 0 0 0 0 0 0 0 0 0 0 0 0 0 0 0 0 0 0 0 0 0 0 0 0 0
0 0 0 0 0 0 0 0 0 0 0 0 0 0 0 0 0 0 0 0 0 0 0 0 0 0 0 0 0 0 0 0 0 0 0 0 0 0 0 0 0 0 0
0 0 0 0 0 0 0 0 0 0 0 0 0 0 0 0 0 0 0 0 0 0 0 0 0 0 0 0 0 0 0 0 0 0 0 0 0 0 0 0 0 0 0
0 0 0 0 0 0 0 0 0 0 0 0 0 0 0 0 0 0 0 0 0 0 0 0 0 0 0 0 0 0 0 0 0 0 0 0 0 0 0 0 0 0 0
0 0 0 0 0 0 0 0 0 0 0 0 0 0 0 0 0 0 0 0 0 0 0 0 0 0 0 0 0 0 0 0 0 0 0 0 0 0 0 0 0 0 0
Wind_Speed_500mb
48 47 44 43 42 41 41 42 42 42 42 39 38 39 36 34 36 36 35 35 29 27 23 24 27 27 23 28 20 28 25 23 16 18 18 32 21 18 21 21 20 21 21
44 46 47 49 50 48 48 49 47 50 49 47 47 45 43 40 38 38 39 39 38 32 27 29 28 29 26 36 24 30 30 25 22 14 18 27 28 17 17 23 23 23 23
33 35 37 46 46 47 52 56 55 56 55 51 52 49 49 49 47 44 42 42 39 39 36 34 33 34 35 37 35 32 33 27 31 30 26 23 32 25 15 22 23 25 26
33 36 34 38 40 40 42 48 53 57 59 57 56 55 49 47 46 48 48 43 40 41 42 43 39 39 38 39 40 39 37 30 34 34 33 28 33 30 19 21 23 26 28
31 39 37 35 40 43 45 44 45 48 53 55 56 59 57 54 54 51 52 49 44 45 48 47 48 44 43 43 46 43 41 39 37 36 34 38 35 34 26 21 27 26 27
36 38 37 39 44 44 48 49 42 46 46 54 56 63 66 61 62 60 60 57 54 53 53 52 56 56 55 51 48 48 45 43 42 41 42 41 43 39 38 31 31 31 30
37 38 38 38 39 43 47 56 51 47 52 52 51 60 71 69 70 70 67 61 57 56 58 60 63 56 52 52 54 52 48 45 45 41 45 50 49 51 46 43 37 45 37
35 37 39 38 37 39 43 49 59 65 58 52 51 52 63 72 58 45 45 56 58 49 54 61 69 68 60 59 59 57 56 45 48 43 45 50 54 57 61 53 49 44 52
28 26 29 30 31 33 37 43 53 60 70 77 75 72 48 45 61 59 53 40 31 34 39 42 40 56 64 67 66 55 52 46 48 50 49 49 52 52 58 64 54 51 64
21 27 31 32 34 35 35 35 41 53 64 64 72 80 82 75 59 62 67 80 65 63 67 68 64 59 55 60 68 64 51 53 53 59 55 52 47 49 54 62 78 83 77
27 32 33 32 30 30 35 36 41 43 50 63 73 82 72 70 67 73 62 72 77 78 83 112 99 95 80 78 74 75 71 58 56 61 57 56 54 56 58 62 63 69 66
25 25 29 36 37 37 34 34 40 45 48 48 58 77 77 64 61 64 68 78 80 94 90 70 80 88 84 76 74 69 72 62 56 56 57 62 62 63 67 60 57 68 67
31 33 30 29 29 30 37 40 43 43 46 50 49 51 61 70 77 79 77 78 88 83 60 53 72 83 77 78 85 74 67 66 67 61 62 62 56 59 54 48 59 65 73
38 39 37 37 38 36 36 37 41 44 47 47 50 54 60 58 61 66 80 90 66 69 71 70 73 82 74 73 83 78 66 67 73 65 57 56 46 32 32 24 4 19 47
44 43 44 45 46 45 42 41 38 43 48 46 47 50 51 57 61 63 68 73 79 52 59 74 79 78 74 62 70 53 58 76 70 55 45 42 31 21 28 34 29 32 36
53 55 55 57 53 52 50 50 43 37 43 51 53 52 55 55 60 63 70 76 78 79 65 81 85 85 73 64 64 81 63 66 59 49 43 45 38 34 37 37 37 42 42
58 62 64 65 63 59 55 51 48 46 43 44 50 58 58 59 60 64 71 78 82 83 79 83 86 76 73 71 70 70 55 59 51 46 46 53 48 41 41 38 37 41 43
67 68 67 66 67 66 62 60 60 56 52 54 50 57 63 61 62 62 65 74 78 78 68 72 68 69 65 49 48 71 68 55 46 40 40 44 42 40 43 42 42 44 43
68 70 67 70 70 66 63 65 63 59 63 60 55 54 61 60 63 60 59 64 68 65 61 62 63 61 49 47 22 40 50 46 41 42 41 39 43 45 44 43 45 40 41
77 78 77 77 76 76 76 72 68 64 63 63 67 61 59 64 60 57 54 54 52 52 54 59 60 50 40 27 29 38 38 37 40 36 39 37 40 40 42 45 47 45 45
88 89 90 92 93 92 87 78 78 74 73 69 68 68 59 63 61 46 50 51 51 56 60 60 56 51 42 36 31 33 33 35 34 31 33 30 33 40 43 44 46 45 46
95 93 92 91 86 85 84 74 66 71 72 70 67 68 67 63 65 52 43 35 40 51 54 60 57 57 42 36 31 32 35 37 34 34 36 38 43 49 48 53 54 54 51
90 93 94 93 95 94 89 85 85 83 81 76 69 64 67 69 66 60 44 35 40 43 50 58 64 58 35 41 42 38 37 33 30 27 30 35 32 37 34 37 43 44 43
79 79 83 84 92 95 94 93 86 85 87 93 95 92 81 78 75 61 57 54 43 41 51 50 50 56 46 44 42 39 33 29 21 13 14 10 14 14 16 24 26 30 33
73 84 81 69 72 73 84 78 74 79 82 81 79 82 87 87 77 63 59 55 52 52 50 58 45 43 41 38 40 33 30 24 16 7 7 4 3 9 13 16 16 13 16
81 66 84 82 66 57 63 56 56 67 67 67 68 71 68 76 69 61 61 57 55 63 57 58 50 53 39 33 35 31 25 19 12 8 6 6 10 15 5 4 5 15 20
Wind_Direction_500mb
248 251 254 259 262 263 266 269 270 270 269 271 269 270 270 266 262 262 265 265 271 273 278 289 289 290 299 293 295 288 286 289 287 292 292 293 267 261 267 272 274 269 263
261 261 265 267 268 270 272 273 274 275 272 269 269 268 271 267 264 264 266 266 270 273 276 284 289 282 291 291 292 290 286 286 284 293 297 291 297 263 267 265 265 269 265
270 272 278 275 278 281 278 277 277 277 278 275 274 277 272 270 269 271 274 271 271 275 284 286 291 287 289 290 290 285 286 282 276 276 279 272 274 260 256 276 262 265 268
268 276 278 278 282 285 287 284 282 279 279 277 277 277 281 282 276 272 273 274 272 277 286 291 289 289 289 290 288 285 280 279 279 274 272 268 264 258 255 270 270 259 266
273 269 271 276 281 282 285 288 291 290 285 280 280 283 282 285 283 278 278 275 279 281 290 292 296 290 290 289 288 283 279 274 267 267 268 265 253 255 242 252 271 266 259
276 281 288 293 289 284 282 284 287 292 294 291 289 287 284 285 285 281 279 276 277 284 289 291 299 291 288 286 292 286 280 277 268 264 263 258 255 248 248 235 254 266 266
279 281 284 284 286 286 286 281 272 284 289 292 295 294 292 290 290 285 279 281 282 281 281 283 285 286 280 279 290 287 281 276 276 272 265 260 254 250 244 242 243 258 256
263 269 276 281 281 280 277 280 281 278 268 266 289 289 291 299 303 297 284 277 276 282 284 285 285 279 272 269 277 286 282 276 277 275 276 274 267 256 251 252 246 250 264
263 275 285 288 286 280 276 272 269 273 273 272 263 261 262 258 291 286 295 278 264 264 277 294 298 295 273 268 271 272 279 269 274 276 278 276 272 270 263 255 250 256 259
284 296 300 299 294 282 275 273 271 264 269 261 268 255 255 261 264 274 270 267 273 271 276 274 274 284 283 276 275 268 258 269 276 279 278 278 274 274 266 263 262 274 250
292 297 298 302 304 297 282 274 267 268 265 265 265 258 266 266 263 259 256 263 274 266 273 266 271 269 273 272 280 270 259 256 269 281 279 279 278 276 275 268 266 251 249
305 304 309 309 305 301 292 285 279 276 273 273 262 257 262 257 253 255 255 264 268 276 282 273 248 258 277 261 277 265 255 256 260 274 277 278 276 274 270 270 255 252 248
305 307 312 322 318 324 315 301 287 281 281 280 275 268 264 263 259 262 256 261 273 279 264 255 253 264 267 270 275 261 254 246 263 265 271 272 277 274 272 265 266 256 252
300 301 303 307 316 314 322 310 303 288 283 281 278 273 273 273 268 248 252 269 263 267 261 263 270 267 272 275 279 262 263 256 248 262 264 269 266 267 273 250 288 277 259
287 286 292 298 299 307 308 313 305 297 287 289 290 284 276 269 270 257 258 262 262 252 258 266 273 275 284 284 268 268 262 254 248 254 251 249 238 237 228 233 274 269 259
289 291 291 294 292 292 296 302 306 303 291 286 287 289 287 273 264 262 261 264 265 261 251 264 272 282 287 281 270 260 260 251 248 239 249 234 235 240 245 254 263 268 269
276 279 285 285 281 280 282 282 290 292 299 299 294 284 286 287 275 266 261 259 263 264 256 271 273 281 278 281 268 249 248 239 240 246 251 234 238 241 246 253 258 269 271
265 268 267 268 273 276 277 278 282 287 289 293 299 289 282 285 281 274 269 267 265 265 267 265 269 272 283 277 283 233 238 244 238 252 243 228 228 238 247 253 263 275 272
270 268 268 266 267 267 270 274 274 277 282 288 291 291 281 281 282 278 277 272 266 264 259 251 257 270 270 290 258 220 230 228 242 245 237 236 237 245 245 250 257 265 265
273 271 269 270 270 269 267 264 263 268 270 276 283 288 281 275 281 280 276 279 267 251 242 245 253 262 261 268 220 215 226 237 244 240 237 237 241 243 250 253 255 260 263
278 276 274 272 269 267 266 264 258 262 265 267 271 278 281 274 273 278 272 276 263 243 238 239 243 248 256 245 233 231 230 229 222 224 232 240 249 248 247 251 255 261 262
280 278 275 273 269 265 261 260 261 257 255 256 260 270 274 281 271 268 273 265 253 248 238 232 238 241 248 236 235 224 215 212 225 238 247 253 256 255 256 255 256 257 263
285 280 277 273 269 267 258 256 254 259 262 260 261 263 270 277 272 264 260 268 267 252 242 241 237 224 239 236 233 234 223 232 245 247 247 254 256 258 261 248 250 256 263
280 272 269 269 269 266 261 261 256 253 258 260 262 263 263 268 268 268 261 263 261 260 238 234 228 227 236 234 230 224 231 237 224 223 230 226 227 242 243 256 260 265 269
272 274 282 277 276 269 260 260 253 249 255 262 266 267 264 256 260 267 262 259 256 260 247 224 222 218 218 218 218 215 205 189 181 185 185 127 348 305 251 263 266 264 273
285 280 267 269 263 268 261 250 249 252 253 260 270 260 260 248 252 260 261 255 256 255 228 213 200 204 195 203 201 185 180 181 180 178 194 328 357 350 338 169 229 302 276
Wind_Speed_850mb
48 47 44 43 42 41 41 42 42 42 42 39 38 39 36 34 36 36 35 35 29 27 23 24 27 27 23 28 20 28 25 23 16 18 18 32 21 18 21 21 20 21 21
44 46 47 49 50 48 48 49 47 50 49 47 47 45 43 40 38 38 39 39 38 32 27 29 28 29 26 36 24 30 30 25 22 14 18 27 28 17 17 23 23 23 23
33 35 37 46 46 47 52 56 55 56 55 51 52 49 49 49 47 44 42 42 39 39 36 34 33 34 35 37 35 32 33 27 31 30 26 23 32 25 15 22 23 25 26
33 36 34 38 40 40 42 48 53 57 59 57 56 55 49 47 46 48 48 43 40 41 42 43 39 39 38 39 40 39 37 30 34 34 33 28 33 30 19 21 23 26 28
31 39 37 35 40 43 45 44 45 48 53 55 56 59 57 54 54 51 52 49 44 45 48 47 48 44 43 43 46 43 41 39 37 36 34 38 35 34 26 21 27 26 27
36 38 37 39 44 44 48 49 42 46 46 54 56 63 66 61 62 60 60 57 54 53 53 52 56 56 55 51 48 48 45 43 42 41 42 41 43 39 38 31 31 31 30
37 38 38 38 39 43 47 56 51 47 52 52 51 60 71 69 70 70 67 61 57 56 58 60 63 56 52 52 54 52 48 45 45 41 45 50 49 51 46 43 37 45 37
35 37 39 38 37 39 43 49 59 65 58 52 51 52 63 72 58 45 45 56 58 49 54 61 69 68 60 59 59 57 56 45 48 43 45 50 54 57 61 53 49 44 52
28 26 29 30 31 33 37 43 53 60 70 77 75 72 48 45 61 59 53 40 31 34 39 42 40 56 64 67 66 55 52 46 48 50 49 49 52 52 58 64 54 51 64
21 27 31 32 34 35 35 35 41 53 64 64 72 80 82 75 59 62 67 80 65 63 67 68 64 59 55 60 68 64 51 53 53 59 55 52 47 49 54 62 78 83 77
27 32 33 32 30 30 35 36 41 43 50 63 73 82 72 70 67 73 62 72 77 78 83 112 99 95 80 78 74 75 71 58 56 61 57 56 54 56 58 62 63 69 66
25 25 29 36 37 37 34 34 40 45 48 48 58 77 77 64 61 64 68 78 80 94 90 70 80 88 84 76 74 69 72 62 56 56 57 62 62 63 67 60 57 68 67
31 33 30 29 29 30 37 40 43 43 46 50 49 51 61 70 77 79 77 78 88 83 60 53 72 83 77 78 85 74 67 66 67 61 62 62 56 59 54 48 59 65 73
38 39 37 37 38 36 36 37 41 44 47 47 50 54 60 58 61 66 80 90 66 69 71 70 73 82 74 73 83 78 66 67 73 65 57 56 46 32 32 24 4 19 47
44 43 44 45 46 45 42 41 38 43 48 46 47 50 51 57 61 63 68 73 79 52 59 74 79 78 74 62 70 53 58 76 70 55 45 42 31 21 28 34 29 32 36
53 55 55 57 53 52 50 50 43 37 43 51 53 52 55 55 60 63 70 76 78 79 65 81 85 85 73 64 64 81 63 66 59 49 43 45 38 34 37 37 37 42 42
58 62 64 65 63 59 55 51 48 46 43 44 50 58 58 59 60 64 71 78 82 83 79 83 86 76 73 71 70 70 55 59 51 46 46 53 48 41 41 38 37 41 43
67 68 67 66 67 66 62 60 60 56 52 54 50 57 63 61 62 62 65 74 78 78 68 72 68 69 65 49 48 71 68 55 46 40 40 44 42 40 43 42 42 44 43
68 70 67 70 70 66 63 65 63 59 63 60 55 54 61 60 63 60 59 64 68 65 61 62 63 61 49 47 22 40 50 46 41 42 41 39 43 45 44 43 45 40 41
77 78 77 77 76 76 76 72 68 64 63 63 67 61 59 64 60 57 54 54 52 52 54 59 60 50 40 27 29 38 38 37 40 36 39 37 40 40 42 45 47 45 45
88 89 90 92 93 92 87 78 78 74 73 69 68 68 59 63 61 46 50 51 51 56 60 60 56 51 42 36 31 33 33 35 34 31 33 30 33 40 43 44 46 45 46
95 93 92 91 86 85 84 74 66 71 72 70 67 68 67 63 65 52 43 35 40 51 54 60 57 57 42 36 31 32 35 37 34 34 36 38 43 49 48 53 54 54 51
90 93 94 93 95 94 89 85 85 83 81 76 69 64 67 69 66 60 44 35 40 43 50 58 64 58 35 41 42 38 37 33 30 27 30 35 32 37 34 37 43 44 43
79 79 83 84 92 95 94 93 86 85 87 93 95 92 81 78 75 61 57 54 43 41 51 50 50 56 46 44 42 39 33 29 21 13 14 10 14 14 16 24 26 30 33
73 84 81 69 72 73 84 78 74 79 82 81 79 82 87 87 77 63 59 55 52 52 50 58 45 43 41 38 40 33 30 24 16 7 7 4 3 9 13 16 16 13 16
81 66 84 82 66 57 63 56 56 67 67 67 68 71 68 76 69 61 61 57 55 63 57 58 50 53 39 33 35 31 25 19 12 8 6 6 10 15 5 4 5 15 20
Wind_Direction_850mb
248 251 254 259 262 263 266 269 270 270 269 271 269 270 270 266 262 262 265 265 271 273 278 289 289 290 299 293 295 288 286 289 287 292 292 293 267 261 267 272 274 269 263
261 261 265 267 268 270 272 273 274 275 272 269 269 268 271 267 264 264 266 266 270 273 276 284 289 282 291 291 292 290 286 286 284 293 297 291 297 263 267 265 265 269 265
270 272 278 275 278 281 278 277 277 277 278 275 274 277 272 270 269 271 274 271 271 275 284 286 291 287 289 290 290 285 286 282 276 276 279 272 274 260 256 276 262 265 268
268 276 278 278 282 285 287 284 282 279 279 277 277 277 281 282 276 272 273 274 272 277 286 291 289 289 289 290 288 285 280 279 279 274 272 268 264 258 255 270 270 259 266
273 269 271 276 281 282 285 288 291 290 285 280 280 283 282 285 283 278 278 275 279 281 290 292 296 290 290 289 288 283 279 274 267 267 268 265 253 255 242 252 271 266 259
276 281 288 293 289 284 282 284 287 292 294 291 289 287 284 285 285 281 279 276 277 284 289 291 299 291 288 286 292 286 280 277 268 264 263 258 255 248 248 235 254 266 266
279 281 284 284 286 286 286 281 272 284 289 292 295 294 292 290 290 285 279 281 282 281 281 283 285 286 280 279 290 287 281 276 276 272 265 260 254 250 244 242 243 258 256
263 269 276 281 281 280 277 280 281 278 268 266 289 289 291 299 303 297 284 277 276 282 284 285 285 279 272 269 277 286 282 276 277 275 276 274 267 256 251 252 246 250 264
263 275 285 288 286 280 276 272 269 273 273 272 263 261 262 258 291 286 295 278 264 264 277 294 298 295 273 268 271 272 279 269 274 276 278 276 272 270 263 255 250 256 259
284 296 300 299 294 282 275 273 271 264 269 261 268 255 255 261 264 274 270 267 273 271 276 274 274 284 283 276 275 268 258 269 276 279 278 278 274 274 266 263 262 274 250
292 297 298 302 304 297 282 274 267 268 265 265 265 258 266 266 263 259 256 263 274 266 273 266 271 269 273 272 280 270 259 256 269 281 279 279 278 276 275 268 266 251 249
305 304 309 309 305 301 292 285 279 276 273 273 262 257 262 257 253 255 255 264 268 276 282 273 248 258 277 261 277 265 255 256 260 274 277 278 276 274 270 270 255 252 248
305 307 312 322 318 324 315 301 287 281 281 280 275 268 264 263 259 262 256 261 273 279 264 255 253 264 267 270 275 261 254 246 263 265 271 272 277 274 272 265 266 256 252
300 301 303 307 316 314 322 310 303 288 283 281 278 273 273 273 268 248 252 269 263 267 261 263 270 267 272 275 279 262 263 256 248 262 264 269 266 267 273 250 288 277 259
287 286 292 298 299 307 308 313 305 297 287 289 290 284 276 269 270 257 258 262 262 252 258 266 273 275 284 284 268 268 262 254 248 254 251 249 238 237 228 233 274 269 259
289 291 291 294 292 292 296 302 306 303 291 286 287 289 287 273 264 262 261 264 265 261 251 264 272 282 287 281 270 260 260 251 248 239 249 234 235 240 245 254 263 268 269
276 279 285 285 281 280 282 282 290 292 299 299 294 284 286 287 275 266 261 259 263 264 256 271 273 281 278 281 268 249 248 239 240 246 251 234 238 241 246 253 258 269 271
265 268 267 268 273 276 277 278 282 287 289 293 299 289 282 285 281 274 269 267 265 265 267 265 269 272 283 277 283 233 238 244 238 252 243 228 228 238 247 253 263 275 272
270 268 268 266 267 267 270 274 274 277 282 288 291 291 281 281 282 278 277 272 266 264 259 251 257 270 270 290 258 220 230 228 242 245 237 236 237 245 245 250 257 265 265
273 271 269 270 270 269 267 264 263 268 270 276 283 288 281 275 281 280 276 279 267 251 242 245 253 262 261 268 220 215 226 237 244 240 237 237 241 243 250 253 255 260 263
278 276 274 272 269 267 266 264 258 262 265 267 271 278 281 274 273 278 272 276 263 243 238 239 243 248 256 245 233 231 230 229 222 224 232 240 249 248 247 251 255 261 262
280 278 275 273 269 265 261 260 261 257 255 256 260 270 274 281 271 268 273 265 253 248 238 232 238 241 248 236 235 224 215 212 225 238 247 253 256 255 256 255 256 257 263
285 280 277 273 269 267 258 256 254 259 262 260 261 263 270 277 272 264 260 268 267 252 242 241 237 224 239 236 233 234 223 232 245 247 247 254 256 258 261 248 250 256 263
280 272 269 269 269 266 261 261 256 253 258 260 262 263 263 268 268 268 261 263 261 260 238 234 228 227 236 234 230 224 231 237 224 223 230 226 227 242 243 256 260 265 269
272 274 282 277 276 269 260 260 253 249 255 262 266 267 264 256 260 267 262 259 256 260 247 224 222 218 218 218 218 215 205 189 181 185 185 127 348 305 251 263 266 264 273
285 280 267 269 263 268 261 250 249 252 253 260 270 260 260 248 252 260 261 255 256 255 228 213 200 204 195 203 201 185 180 181 180 178 194 328 357 350 338 169 229 302 276